HISPASAT 30W-5 (37264 NORAD) Tracking and Keplerian Element Data

This shows tracking and keplerian element data for the satellite.

Feedback or suggestion? Click here.




ElementValue
Catalog37264
NameHISPASAT 30W-5
Epoch Orbit5139
Epoch Day354.13586529
Epoch Year2025
RAAN111.5361
Inclination0.0509
Eccentricity0.0002712
Argument of Perigee142.0642
Mean Anonmoly214.2907
Mean Motion1.00271315
Decay Rate-1.92E-06
L11 37264U 10070A 25354.13586529 -.00000192 00000+0 00000+0 0 9999
L22 37264 0.0509 111.5361 0002712 142.0642 214.2907 1.00271315 51390



Live tracking and technical data element details for HISPASAT 30W-5 (NORAD 37264). HISPASAT 30W-5 can be tracked NOW for your location showing map with azimuth and elevation plus other details from your city location.







IsCatalogInMostPopularTable: catalog: 37264, numindb: 444
Update: records affected: 1



GetName: 37264 HISPASAT 30W-5

Hit Count: updated at: Thu, 21 May 2026 10:56:28 GMT